Regional Weather Roundup
Issued by NWS Nashville, TN

Home | Current Version | Previous Version | Text Only | Print | Product List | Glossary On
Versions: 1 2 3 4 5 6 7 8 9 10 11 12 13 14 15 16 17 18 19 20 21 22 23 24 25 26 27 28 29 30 31 32 33 34 35 36 37 38 39 40 41 42 43 44 45 46 47 48 49 50
775
ASUS44 KOHX 191210
RWROHX
MIDDLE TENNESSEE HOURLY WEATHER ROUNDUP
NATIONAL WEATHER SERVICE NASHVILLE TN
600 AM CST SUN FEB 19 2017

NOTE: "FAIR" INDICATES FEW OR NO CLOUDS BELOW 12,000 FEET WITH
NO SIGNIFICANT WEATHER AND/OR OBSTRUCTIONS TO VISIBILITY.

* THESE REPORTS ARE NOT UNDER NWS QUALITY CONTROL AND MAY NOT
  REPORT WEATHER SUCH AS PRECIPITATION AND FOG.


TNZ005>011-023>034-057-059-062>066-078-080-191300
...NORTHERN MIDDLE TENNESSEE...

CITY           SKY/WX    TMP DP  RH WIND       PRES   REMARKS
CLARKSVILLE    FOG       41  39  93 E3        30.03R VSB 1/4
CROSSVILLE     CLOUDY    48  46  93 W3        30.05R FOG
GALLATIN       FOG       43  43 100 CALM      30.08R VSB 0
DICKSON        CLEAR     45  45 100 CALM      30.01S
LIVINGSTON     CLOUDY    50  46  85 CALM      30.04R
NASHVILLE      PTCLDY    46  44  93 S5        30.04S FOG
PORTLAND       CLOUDY    46  45  93 CALM      30.05R FOG
SMYRNA         FOG       42  42 100 CALM      30.06R VSB 1/4
SPARTA         CLOUDY    48  48 100 CALM      30.04R FOG
SPRINGFIELD    CLOUDY    46  46 100 CALM      30.03R FOG
WEST NASHVILLE CLOUDY    43  43 100 CALM      30.04S VSB 0
$$
TNZ056-058-060-061-075>077-079-093>097-191300
...SOUTHERN MIDDLE TENNESSEE...

CITY           SKY/WX    TMP DP  RH WIND       PRES   REMARKS
COLUMBIA       PTCLDY   N/A N/A N/A CALM      30.02S
FAYETTEVILLE   FOG       45  45 100 CALM      30.04R VSB 0
MCMINNVILLE    CLOUDY    48  48 100 CALM      30.05R VSB 3/4
MURFREESBORO     N/A     45  44  96 CALM      30.05R VSB 3/4
SHELBYVILLE    MOCLDY    46  46 100 E3        30.06R VSB 1/4
TULLAHOMA      CLOUDY    48  48 100 CALM      30.06R
WINCHESTER     CLOUDY    48  48 100 CALM      30.06R VSB 3/4
$$


...KEY TO REMARKS...
VSB - VISIBILITY IN MILES
WCI - WIND CHILL INDEX
HX  - HEAT INDEX





USA.gov is the U.S. government's official web portal to all federal, state and local government web resources and services.